This is the latest recevied weather packets stored in our database for station/object YC0ACE-13. If no packets are shown the sender has not sent any weather packets the latest 10 day(s).
| Time | Temp. | Humidity | Pressure | Rain* | Wind** | Luminosity | Snow |
|---|---|---|---|---|---|---|---|
| 1777941624 | 27.22° C | 88% | 1015.9 hPa | 0 mm | - | 131 W/m² | - |
| 1777941325 | 26.67° C | 87% | 1015.6 hPa | 0 mm | - | 138 W/m² | - |
| 1777941025 | 26.67° C | 88% | 1015.6 hPa | 0 mm | - | 133 W/m² | - |
| 1777940724 | 26.67° C | 88% | 1015.6 hPa | 0 mm | - | 87 W/m² | - |
| 1777940424 | 26.11° C | 89% | 1015.6 hPa | 0 mm | - | 75 W/m² | - |
| 1777940124 | 26.11° C | 89% | 1015.2 hPa | 0 mm | - | 66 W/m² | - |
| 1777939825 | 26.11° C | 88% | 1015.2 hPa | 0 mm | - | 59 W/m² | - |
| 1777939525 | 26.67° C | 88% | 1015.2 hPa | 0 mm | - | 55 W/m² | - |
| 1777939224 | 26.67° C | 87% | 1015.2 hPa | 0 mm | - | 51 W/m² | - |
| 1777938925 | 26.67° C | 87% | 1015.2 hPa | 0 mm | - | 50 W/m² | - |
| 1777938624 | 26.67° C | 86% | 1014.9 hPa | 0 mm | - | 52 W/m² | - |
| 1777938325 | 26.11° C | 89% | 1014.9 hPa | 0 mm | - | 57 W/m² | - |
| 1777938025 | 25.56° C | 91% | 1014.9 hPa | 0 mm | - | 56 W/m² | - |
| 1777937725 | 25.56° C | 92% | 1015.2 hPa | 0 mm | - | 48 W/m² | - |
| 1777937424 | 25.56° C | 92% | 1015.2 hPa | 0 mm | - | 36 W/m² | - |
| 1777937125 | 25° C | 92% | 1014.9 hPa | 0 mm | - | 27 W/m² | - |
| 1777936824 | 25° C | 93% | 1015.2 hPa | 0 mm | - | 22 W/m² | - |
| 1777936525 | 25° C | 93% | 1014.9 hPa | 0 mm | - | 19 W/m² | - |
| 1777936224 | 25° C | 93% | 1014.9 hPa | 0 mm | - | 14 W/m² | - |
| 1777935925 | 25° C | 93% | 1014.6 hPa | 0 mm | - | 10 W/m² | - |
| 1777935625 | 25° C | 94% | 1014.6 hPa | 0 mm | - | 6 W/m² | - |
| 1777935325 | 25° C | 94% | 1014.6 hPa | 0 mm | - | 4 W/m² | - |
| 1777935025 | 25° C | 94% | 1014.6 hPa | 0 mm | - | 2 W/m² | - |
| 1777934725 | 25° C | 94% | 1014.6 hPa | 0 mm | - | 1 W/m² | - |
| 1777934425 | 25° C | 94% | 1014.6 hPa | 0 mm | - | 0 W/m² | - |
* Rain latest hour (hover to see other rain measurements)
** Current wind speed in m/s (hover to see current wind gust speed)